Hourly Weather Sarnetki

Today, 7 July, Tuesday

Time Temperature Precipitation Wind Pressure Humidity
00:00 +15°C° 0 mm 2 mps 744 mmHg 89%
01:00 +14°C° 0 mm 2 mps 744 mmHg 89%
02:00 +13°C° 0 mm 2 mps 744 mmHg 89%
03:00 +13°C° 0 mm 2 mps 744 mmHg 89%
04:00 +13°C° 0 mm 2 mps 745 mmHg 88%
05:00 +13°C° 0 mm 2 mps 745 mmHg 88%
06:00 +13°C° 0 mm 3 mps 745 mmHg 84%
07:00 +13°C° 0 mm 3 mps 745 mmHg 80%
08:00 +14°C° 0 mm 3 mps 746 mmHg 77%
09:00 +15°C° 0 mm 4 mps 746 mmHg 73%
10:00 +17°C° 0 mm 4 mps 746 mmHg 69%
11:00 +17°C° 0 mm 5 mps 746 mmHg 65%
12:00 +17°C° 0.1 mm 5 mps 746 mmHg 65%
13:00 +17°C° 0.1 mm 5 mps 746 mmHg 64%
14:00 +16°C° 0.1 mm 5 mps 746 mmHg 64%
15:00 +16°C° 0.1 mm 5 mps 746 mmHg 64%
16:00 +16°C° 0.1 mm 5 mps 746 mmHg 65%
17:00 +16°C° 0.1 mm 5 mps 746 mmHg 66%
18:00 +15°C° 0.1 mm 4 mps 746 mmHg 72%
19:00 +14°C° 0.1 mm 4 mps 746 mmHg 77%
20:00 +13°C° 0.1 mm 3 mps 747 mmHg 82%
21:00 +12°C° 0 mm 3 mps 747 mmHg 86%
22:00 +11°C° 0 mm 3 mps 747 mmHg 90%
23:00 +10°C° 0 mm 2 mps 747 mmHg 94%

Tomorrow, 8 July, Wednesday

Time Temperature Precipitation Wind Pressure Humidity
00:00 +9°C° 0 mm 2 mps 747 mmHg 94%
01:00 +9°C° 0 mm 2 mps 747 mmHg 94%
02:00 +8°C° 0 mm 2 mps 747 mmHg 95%
03:00 +9°C° 0 mm 2 mps 747 mmHg 94%
04:00 +9°C° 0 mm 3 mps 747 mmHg 94%
05:00 +9°C° 0 mm 3 mps 747 mmHg 94%
06:00 +10°C° 0 mm 3 mps 746 mmHg 86%
07:00 +12°C° 0 mm 4 mps 746 mmHg 79%
08:00 +14°C° 0 mm 5 mps 746 mmHg 71%
09:00 +14°C° 0.2 mm 5 mps 746 mmHg 74%
10:00 +14°C° 0.2 mm 5 mps 746 mmHg 77%
11:00 +14°C° 0.2 mm 5 mps 746 mmHg 80%
12:00 +15°C° 0.3 mm 5 mps 746 mmHg 77%
13:00 +15°C° 0.3 mm 5 mps 746 mmHg 74%
14:00 +16°C° 0.3 mm 5 mps 746 mmHg 71%
15:00 +16°C° 0.6 mm 5 mps 746 mmHg 73%
16:00 +17°C° 0.6 mm 4 mps 746 mmHg 75%
17:00 +17°C° 0.6 mm 4 mps 746 mmHg 78%
18:00 +16°C° 0.5 mm 3 mps 746 mmHg 82%
19:00 +14°C° 0.5 mm 3 mps 746 mmHg 86%
20:00 +14°C° 0.5 mm 2 mps 746 mmHg 90%
21:00 +14°C° 0.2 mm 2 mps 746 mmHg 91%
22:00 +13°C° 0.2 mm 2 mps 747 mmHg 92%
23:00 +12°C° 0.2 mm 2 mps 747 mmHg 93%

Day after tomorrow, 9 July, Thursday

Time Temperature Precipitation Wind Pressure Humidity
00:00 +12°C° 0 mm 2 mps 747 mmHg 94%
01:00 +10°C° 0 mm 2 mps 748 mmHg 95%
02:00 +9°C° 0 mm 3 mps 748 mmHg 96%
03:00 +9°C° 0 mm 3 mps 748 mmHg 96%
04:00 +9°C° 0 mm 3 mps 748 mmHg 96%
05:00 +8°C° 0 mm 3 mps 748 mmHg 97%
06:00 +10°C° 0 mm 3 mps 748 mmHg 93%
07:00 +11°C° 0 mm 4 mps 749 mmHg 89%
08:00 +13°C° 0 mm 4 mps 749 mmHg 85%
09:00 +14°C° 0.1 mm 4 mps 750 mmHg 79%
10:00 +17°C° 0.1 mm 4 mps 750 mmHg 73%
11:00 +18°C° 0.1 mm 4 mps 750 mmHg 67%
12:00 +19°C° 0.2 mm 4 mps 750 mmHg 65%
13:00 +19°C° 0.2 mm 5 mps 750 mmHg 62%
14:00 +20°C° 0.2 mm 5 mps 750 mmHg 60%
15:00 +20°C° 0.2 mm 4 mps 750 mmHg 61%
16:00 +20°C° 0.2 mm 4 mps 750 mmHg 62%
17:00 +19°C° 0.2 mm 4 mps 750 mmHg 63%
18:00 +18°C° 0.1 mm 3 mps 750 mmHg 70%
19:00 +17°C° 0.1 mm 2 mps 750 mmHg 76%
20:00 +16°C° 0.1 mm 1 mps 750 mmHg 82%
21:00 +15°C° 0 mm 1 mps 751 mmHg 84%
22:00 +14°C° 0 mm 1 mps 751 mmHg 87%
23:00 +13°C° 0 mm 1 mps 751 mmHg 89%

10 July, Friday

Time Temperature Precipitation Wind Pressure Humidity
00:00 +12°C° 0 mm 1 mps 751 mmHg 91%
01:00 +12°C° 0 mm 2 mps 751 mmHg 92%
02:00 +10°C° 0 mm 2 mps 751 mmHg 93%
03:00 +10°C° 0 mm 2 mps 750 mmHg 93%
04:00 +12°C° 0 mm 2 mps 750 mmHg 93%
05:00 +12°C° 0 mm 2 mps 750 mmHg 93%
06:00 +13°C° 0 mm 3 mps 750 mmHg 87%
07:00 +15°C° 0 mm 4 mps 750 mmHg 82%
08:00 +18°C° 0 mm 4 mps 749 mmHg 76%
09:00 +19°C° 0 mm 5 mps 749 mmHg 71%
10:00 +21°C° 0 mm 5 mps 749 mmHg 66%
11:00 +22°C° 0 mm 6 mps 749 mmHg 62%
12:00 +23°C° 0 mm 6 mps 748 mmHg 61%
13:00 +23°C° 0 mm 6 mps 748 mmHg 61%
14:00 +24°C° 0 mm 7 mps 747 mmHg 60%
15:00 +24°C° 0.1 mm 6 mps 746 mmHg 64%
16:00 +24°C° 0.1 mm 6 mps 746 mmHg 67%
17:00 +24°C° 0.1 mm 6 mps 745 mmHg 71%
18:00 +23°C° 0.7 mm 6 mps 744 mmHg 77%
19:00 +22°C° 0.7 mm 6 mps 744 mmHg 83%
20:00 +21°C° 0.7 mm 6 mps 743 mmHg 89%
21:00 +20°C° 2.2 mm 5 mps 743 mmHg 90%
22:00 +18°C° 2.2 mm 4 mps 744 mmHg 92%
23:00 +16°C° 2.2 mm 2 mps 744 mmHg 93%

11 July, Saturday

Time Temperature Precipitation Wind Pressure Humidity
00:00 +16°C° 0 mm 3 mps 745 mmHg 93%
01:00 +15°C° 0 mm 4 mps 745 mmHg 93%
02:00 +15°C° 0 mm 5 mps 746 mmHg 94%
03:00 +14°C° 0 mm 4 mps 746 mmHg 93%
04:00 +13°C° 0 mm 4 mps 747 mmHg 92%
05:00 +12°C° 0 mm 4 mps 747 mmHg 91%
06:00 +12°C° 0 mm 4 mps 748 mmHg 86%
07:00 +13°C° 0 mm 5 mps 748 mmHg 82%
08:00 +14°C° 0 mm 5 mps 749 mmHg 77%
09:00 +15°C° 0 mm 5 mps 749 mmHg 73%
10:00 +15°C° 0 mm 5 mps 750 mmHg 68%
11:00 +16°C° 0 mm 5 mps 750 mmHg 63%
12:00 +17°C° 0 mm 5 mps 750 mmHg 62%
13:00 +17°C° 0 mm 5 mps 750 mmHg 61%
14:00 +19°C° 0 mm 5 mps 750 mmHg 59%
15:00 +19°C° 0 mm 5 mps 750 mmHg 61%
16:00 +17°C° 0 mm 5 mps 750 mmHg 62%
17:00 +17°C° 0 mm 5 mps 750 mmHg 64%
18:00 +17°C° 0 mm 4 mps 750 mmHg 69%
19:00 +16°C° 0 mm 3 mps 750 mmHg 74%
20:00 +14°C° 0 mm 3 mps 750 mmHg 80%
21:00 +13°C° 0 mm 3 mps 750 mmHg 84%
22:00 +12°C° 0 mm 3 mps 750 mmHg 88%
23:00 +11°C° 0 mm 3 mps 750 mmHg 92%

12 July, Sunday

Time Temperature Precipitation Wind Pressure Humidity
00:00 +11°C° 0 mm 3 mps 750 mmHg 92%
01:00 +10°C° 0 mm 3 mps 750 mmHg 92%
02:00 +10°C° 0 mm 3 mps 750 mmHg 93%
03:00 +10°C° 0 mm 3 mps 750 mmHg 93%
04:00 +10°C° 0 mm 3 mps 750 mmHg 93%
05:00 +9°C° 0 mm 3 mps 750 mmHg 93%
06:00 +11°C° 0 mm 3 mps 750 mmHg 86%
07:00 +13°C° 0 mm 4 mps 750 mmHg 79%
08:00 +14°C° 0 mm 4 mps 751 mmHg 72%
09:00 +15°C° 0.1 mm 4 mps 751 mmHg 69%
10:00 +16°C° 0.1 mm 5 mps 751 mmHg 65%
11:00 +17°C° 0.1 mm 5 mps 751 mmHg 61%
12:00 +17°C° 0.1 mm 5 mps 751 mmHg 60%
13:00 +17°C° 0.1 mm 5 mps 751 mmHg 59%
14:00 +17°C° 0.1 mm 5 mps 751 mmHg 59%
15:00 +17°C° 0.1 mm 5 mps 751 mmHg 61%
16:00 +17°C° 0.1 mm 5 mps 751 mmHg 63%
17:00 +17°C° 0.1 mm 5 mps 751 mmHg 65%
18:00 +15°C° 0.1 mm 4 mps 751 mmHg 72%
19:00 +14°C° 0.1 mm 3 mps 751 mmHg 79%
20:00 +13°C° 0.1 mm 3 mps 751 mmHg 87%
21:00 +12°C° 0 mm 3 mps 752 mmHg 90%
22:00 +12°C° 0 mm 2 mps 752 mmHg 93%
23:00 +10°C° 0 mm 2 mps 752 mmHg 96%
Show more